Volver al catálogo

CZ-6A DEB

ActivoSSO
NORAD 55874·DEBRIS·🇨🇳 China

Lanzado Nov 11, 2022 desde Taiyuan Satellite Launch Center

Loading…

Próximos Pases (próximas 24 horas)

TLE

ActualizadoSource: Space-Track

Época: Sep 14, 2026, 10:08 UTC

1 55874U 22151ZW  26257.42239613  .00001904  00000-0  98865-3 0  9995
2 55874  98.8381 251.2187 0066756  88.0326 272.8490 14.14784441185421

Sigue CZ-6A DEB en tiempo real con AllMySat

Download on the App Store